Wind_Speed
14 15 17 19 20 21 21 21 21 21 17 13 3 2 5 5 4 2 3 3 5 7 6 2 3 4 3 4 3 3 4 2 5 6 4 3 4 2 0 6 1 2 4 4 30
14 16 17 19 20 22 23 22 21 20 18 13 6 4 2 2 1 5 2 4 5 7 5 8 4 3 3 3 3 4 3 5 3 5 4 4 4 8 5 3 3 1 1 18 30
15 16 18 19 20 21 24 25 24 22 21 12 8 4 5 4 3 3 2 3 5 6 6 4 3 3 4 2 3 1 2 2 3 3 5 3 2 6 7 5 8 10 12 13 17
15 16 18 20 21 22 23 25 25 24 25 13 8 3 5 2 3 4 3 2 4 5 6 5 6 4 3 3 3 2 1 1 2 2 3 3 3 4 9 6 0 8 17 14 11
16 18 18 20 21 22 22 23 24 25 25 15 8 1 2 0 6 5 2 1 2 0 8 3 4 2 2 1 3 1 3 2 1 3 5 1 6 7 8 2 5 13 14 13 11
15 17 19 20 21 22 23 23 24 24 25 14 8 4 2 4 3 4 2 2 3 3 4 6 3 3 4 0 2 1 3 5 4 4 4 4 3 1 1 6 8 13 13 10 11
14 16 18 20 22 23 24 23 24 25 21 10 6 3 0 9 3 3 2 4 5 3 4 4 4 3 3 1 3 0 5 7 1 3 4 4 7 10 4 6 9 10 9 9 12
15 16 17 20 21 24 25 24 25 25 13 6 3 2 6 2 4 3 3 4 5 6 7 5 4 5 3 1 6 4 4 5 2 5 1 4 9 8 7 11 11 10 9 11 12
18 16 17 19 21 24 25 24 26 15 6 2 2 4 7 2 2 4 2 3 4 6 6 6 4 3 3 4 5 6 3 3 9 5 2 6 9 5 7 8 10 12 13 14 10
18 18 17 18 21 24 25 24 14 4 0 1 2 3 2 3 3 3 3 4 3 3 3 5 5 3 3 3 4 5 4 5 7 2 3 5 16 15 8 11 16 16 13 14 15
17 18 17 17 19 21 24 9 6 4 2 6 3 3 1 1 3 2 4 5 2 1 5 2 2 7 10 8 3 3 4 7 5 5 3 9 13 19 10 10 12 15 14 17 18
18 18 15 15 17 17 10 5 2 1 8 3 5 4 4 1 2 3 6 4 4 7 5 3 10 7 4 4 4 3 3 8 7 1 6 10 17 13 19 16 13 16 17 19 15
17 17 16 13 13 5 6 3 2 3 1 7 4 4 3 7 5 4 9 4 4 5 6 7 3 5 5 4 4 4 5 5 7 5 4 8 10 6 8 7 9 12 14 15 20
16 16 15 11 4 5 1 3 2 2 3 7 3 2 2 2 3 2 7 3 2 9 8 7 2 7 4 6 8 4 6 3 4 5 4 3 12 4 8 12 7 9 10 14 17
16 13 12 8 8 2 1 3 2 2 5 5 3 2 2 5 2 1 1 2 5 5 6 7 8 5 5 8 8 7 2 2 1 2 4 4 5 6 2 8 20 13 12 12 16
16 12 8 9 5 3 2 2 1 4 8 4 3 5 4 3 2 2 2 4 0 4 3 6 1 6 7 3 3 4 3 5 4 2 2 7 9 4 6 10 8 6 6 9 11
14 12 10 7 2 1 2 1 2 5 3 5 5 4 2 6 5 7 7 6 7 4 6 1 5 2 3 4 2 4 5 4 5 2 9 4 3 12 7 12 12 9 7 9 9
14 11 13 13 2 4 1 4 8 7 7 3 3 2 5 6 4 5 4 4 7 2 3 4 12 8 5 7 7 6 8 6 8 4 16 3 8 8 13 12 4 5 8 6 9
14 12 13 17 13 2 3 6 9 8 7 7 2 3 5 4 4 5 8 6 8 12 9 6 8 2 2 2 2 5 5 2 2 2 3 6 8 7 10 12 8 9 7 10 11
17 7 13 15 17 7 2 18 9 10 7 5 13 11 9 7 8 7 8 5 6 15 3 4 6 1 1 2 3 4 4 4 2 4 7 11 13 13 11 11 12 8 10 10 8
15 3 9 26 22 3 10 9 7 8 6 8 8 7 10 9 9 8 8 4 7 5 6 4 4 2 4 10 12 3 4 0 2 5 6 7 12 5 9 11 11 10 11 10 12
7 4 14 35 7 5 14 7 7 6 6 9 5 9 11 10 9 9 12 14 11 9 11 8 5 8 15 2 3 3 8 10 6 7 3 2 25 2 7 8 7 9 10 8 11
4 5 18 19 7 13 3 4 7 7 12 13 11 8 6 7 8 10 17 5 10 11 12 10 4 5 7 2 2 7 7 6 2 1 11 7 26 3 6 8 8 9 8 9 11
4 5 3 6 8 14 14 9 10 7 20 5 6 8 4 14 19 11 6 3 4 8 4 14 8 11 20 10 6 6 11 15 20 16 18 31 31 44 19 23 26 16 10 12 13
5 5 7 7 15 19 11 6 21 10 8 14 11 23 18 11 19 21 17 3 1 5 3 9 16 13 25 28 5 7 19 16 20 30 22 36 30 42 26 28 28 14 10 9 12
8 4 3 5 10 23 26 25 27 14 9 9 20 6 22 27 25 24 16 8 13 3 8 5 12 10 22 23 9 10 35 20 26 33 24 32 39 41 28 29 28 26 17 12 13
20 7 7 9 12 11 22 30 27 21 17 22 18 18 22 25 23 25 13 6 9 11 11 8 5 4 24 9 7 10 30 31 30 32 26 27 46 38 31 29 28 21 10 11 14
Wind_Direction
13 11 10 8 7 7 9 9 9 12 5 10 8 141 109 74 86 88 45 5 354 360 1 8 23 75 96 84 74 131 66 183 196 149 233 188 157 51 4 122 148 259 172 234 165
2 2 2 1 359 358 358 1 2 1 1 0 354 213 202 360 43 74 54 15 4 4 7 24 11 358 59 69 32 77 99 214 186 185 203 191 183 170 154 138 249 327 70 149 157
350 353 354 353 353 352 351 352 354 353 354 348 348 253 233 330 331 188 107 18 5 17 11 26 9 29 61 36 16 162 167 211 239 201 180 193 240 169 145 219 204 197 169 157 163
345 345 346 347 347 346 345 345 346 347 348 339 335 304 225 275 231 170 157 40 13 28 34 44 16 45 62 36 355 358 37 209 279 227 161 216 126 234 194 208 73 182 163 163 172
340 343 343 342 341 340 339 339 337 339 342 331 322 225 172 342 247 188 209 158 43 93 54 75 60 78 61 313 19 41 324 322 236 270 249 91 242 239 243 3 117 140 158 175 173
332 336 337 338 336 334 333 333 331 332 334 325 313 214 195 235 181 186 223 171 71 71 59 48 118 142 107 340 116 297 273 264 247 226 255 219 248 186 246 133 129 158 176 181 181
319 325 329 330 332 331 329 328 326 325 327 317 300 227 91 237 201 198 186 139 76 89 111 86 118 108 132 21 330 10 323 323 168 184 247 172 285 238 145 153 167 186 181 189 196
309 314 321 325 325 327 326 325 322 321 320 296 242 190 247 271 220 206 157 127 98 83 102 106 101 108 80 170 13 38 54 13 249 152 278 131 267 269 165 159 197 199 197 200 206
312 312 316 321 323 325 324 325 317 316 312 267 184 138 268 286 263 222 179 148 111 94 82 99 75 85 48 76 5 5 257 253 313 195 141 175 270 251 174 197 213 211 206 205 204
315 312 313 317 324 326 325 323 315 306 226 131 84 34 255 212 179 182 164 143 108 95 53 49 53 75 52 95 247 248 259 241 235 231 189 226 262 269 201 207 220 220 212 209 207
308 313 313 317 324 331 334 339 8 355 8 204 210 231 306 162 187 175 153 127 88 86 185 0 117 205 215 196 196 188 216 239 246 244 225 250 250 267 256 231 229 226 210 212 211
308 313 311 314 326 330 337 62 85 159 308 281 255 271 236 169 284 227 168 163 152 204 125 44 237 207 115 139 161 190 251 263 281 274 197 268 256 257 261 252 223 232 220 215 202
303 309 315 316 324 342 21 54 26 353 245 292 217 225 205 158 221 239 151 149 176 185 194 178 219 108 142 155 177 221 202 242 241 329 246 303 267 225 270 256 251 232 226 212 205
302 308 318 327 296 346 51 2 18 33 39 271 236 273 89 119 262 170 181 148 192 210 163 234 217 172 173 210 155 238 217 247 284 15 257 12 293 236 243 283 249 231 205 209 205
295 303 312 324 302 299 313 345 334 118 310 260 203 145 135 162 126 296 26 92 201 192 138 240 169 171 191 212 165 228 140 150 108 217 6 230 266 250 354 270 267 265 214 209 204
287 294 292 292 264 245 283 321 326 47 244 284 159 177 143 190 192 114 124 53 30 155 261 250 316 179 207 84 153 134 85 60 56 69 269 227 195 209 178 215 256 259 238 208 198
291 283 261 261 293 295 196 82 29 186 295 239 214 179 196 192 213 175 168 178 179 153 225 264 214 176 150 109 42 91 67 316 321 341 246 139 207 253 237 233 231 257 266 216 193
265 266 255 241 307 238 239 60 210 214 216 40 98 77 197 158 244 175 147 223 236 108 118 208 273 180 176 196 183 173 169 171 238 235 284 221 242 259 231 257 251 244 257 233 196
241 237 240 239 225 230 84 220 202 180 201 166 104 183 228 234 198 156 208 208 213 172 192 182 264 91 56 90 109 182 189 170 51 120 325 232 270 288 257 264 260 248 234 229 204
207 218 219 220 211 187 148 237 208 195 157 160 205 185 203 207 174 186 182 193 221 194 154 238 291 114 129 103 29 176 169 83 8 277 267 263 275 251 229 244 247 242 230 235 197
189 219 205 191 171 187 223 223 222 224 173 176 212 237 210 190 197 205 217 225 206 156 158 150 150 245 133 204 172 143 224 79 163 162 208 291 274 210 207 222 232 230 231 216 199
170 224 179 164 178 208 228 191 189 217 217 260 211 227 222 197 222 222 212 216 166 151 161 197 166 238 237 336 343 292 205 172 201 229 240 151 268 223 192 197 216 231 230 212 204
196 181 180 185 212 217 235 273 235 186 201 222 228 190 196 215 245 202 241 185 155 156 170 177 211 266 280 62 354 223 203 227 287 176 208 197 259 185 195 215 225 230 229 212 203
161 177 183 214 217 219 219 230 233 217 237 232 230 194 167 237 229 256 223 192 203 200 343 165 187 201 240 228 132 180 216 215 222 247 244 234 260 268 261 276 278 265 226 216 204
190 208 177 192 216 218 199 235 236 226 211 207 245 231 228 250 245 240 255 264 205 207 149 175 234 224 245 258 190 211 245 208 212 234 237 258 248 257 263 264 269 276 235 203 202
225 198 180 209 202 211 210 231 238 241 171 218 232 219 227 238 235 256 240 209 226 5 186 188 244 252 259 257 188 245 254 241 225 242 244 257 268 265 272 277 277 275 266 218 207
235 224 201 191 215 207 217 223 236 231 240 235 227 233 238 238 242 253 273 256 225 222 193 173 182 187 252 256 121 263 247 240 252 250 233 246 253 275 273 265 265 267 226 215 207
Height
829 827 825 823 820 818 815 813 810 807 804 801 800 799 798 797 796 796 797 798 796 794 792 791 791 790 791 795 798 802 823 831 820 828 813 809 812 817 818 822 824 824 824 822 826
831 829 826 824 822 819 816 813 810 807 804 801 800 799 799 797 797 796 798 797 795 794 792 790 791 790 796 798 803 812 826 816 810 813 810 808 808 815 818 824 823 825 823 822 826
831 829 827 824 821 819 816 813 810 808 804 801 799 798 798 798 798 795 795 796 795 793 792 791 791 792 797 798 806 811 818 809 807 807 807 807 808 812 818 822 815 816 821 824 826
831 829 827 824 822 819 816 812 810 807 804 801 798 797 797 798 812 794 794 795 794 793 792 792 793 798 807 806 807 811 807 807 806 806 808 809 808 808 812 800 804 807 814 820 822
830 828 826 823 821 818 815 812 808 806 803 801 798 797 797 799 796 793 793 793 793 793 793 793 799 803 807 807 805 809 809 808 807 808 808 808 809 808 803 803 803 806 812 816 820
829 827 825 822 820 817 814 810 807 804 801 800 798 797 797 805 791 791 792 792 792 792 793 794 798 800 806 808 809 809 809 809 807 807 808 809 809 807 799 804 806 808 812 815 818
827 825 823 821 818 815 812 808 804 801 799 798 798 798 797 795 790 791 791 791 792 792 793 795 796 798 805 808 808 809 812 809 806 806 808 808 812 807 799 805 807 808 811 812 813
826 823 821 819 816 813 809 805 802 798 796 795 795 797 799 791 791 791 791 791 791 792 793 794 795 799 803 807 813 814 819 821 803 806 804 806 812 792 799 803 806 808 809 808 809
824 822 820 817 814 811 806 802 798 795 794 795 796 795 799 791 792 791 791 791 792 793 794 795 796 806 807 817 825 827 825 824 817 806 805 809 805 790 800 803 802 803 803 803 805
823 821 818 816 814 810 805 800 795 794 794 795 796 800 792 789 789 790 791 792 793 795 796 798 807 813 821 823 830 822 825 826 823 804 808 809 802 785 794 799 793 792 795 798 798
821 818 817 815 813 810 805 799 798 798 795 793 792 791 789 788 789 790 790 792 794 796 805 804 812 816 807 811 806 811 818 824 816 805 804 803 799 782 777 790 789 786 789 789 789
821 817 815 815 814 811 808 807 812 814 810 791 790 788 787 788 791 790 791 796 799 806 806 812 813 801 801 807 809 814 819 822 812 808 812 803 792 785 770 763 770 769 774 777 784
819 817 815 814 812 811 810 811 812 812 815 794 789 788 785 786 789 788 790 794 799 808 810 812 796 799 799 807 812 817 820 814 811 813 810 811 783 784 763 759 757 757 758 768 771
818 817 814 812 813 810 810 811 810 811 825 798 789 786 787 786 789 785 786 790 797 804 810 806 795 798 802 804 811 814 805 808 810 815 818 806 774 774 764 753 751 753 758 757 762
817 815 815 813 812 811 812 810 811 809 847 788 786 785 785 790 791 790 789 789 796 799 803 791 799 800 802 799 803 802 803 806 810 818 830 816 821 774 772 762 739 730 746 750 752
814 814 814 813 811 810 809 811 812 830 832 787 785 787 789 787 787 789 789 790 794 796 797 797 794 795 792 799 799 805 804 819 835 836 838 786 793 779 771 752 741 736 741 748 752
810 812 813 811 811 810 810 811 830 835 791 783 782 788 786 789 787 789 793 797 800 804 805 792 795 792 792 797 804 805 812 826 826 843 794 804 809 736 742 736 731 730 736 744 748
807 807 809 809 809 811 812 820 829 802 792 779 783 788 788 785 785 789 794 796 793 791 806 796 779 791 791 787 792 810 806 818 829 828 764 807 781 731 730 722 731 738 738 740 745
803 803 803 807 807 810 816 827 795 792 782 779 781 786 787 781 781 789 795 790 780 783 784 800 792 791 791 790 792 805 807 800 812 889 853 763 747 732 726 725 730 734 734 736 739
797 799 794 798 806 808 818 782 780 772 769 771 775 773 783 781 786 788 784 772 770 768 761 767 780 792 797 795 802 799 801 809 825 819 836 745 735 715 708 709 716 727 730 729 734
790 793 783 788 801 806 792 784 774 765 762 769 771 766 767 768 771 779 761 758 759 765 765 770 774 781 796 796 792 805 802 803 803 815 810 803 699 702 699 702 705 712 718 721 726
779 782 777 782 791 785 771 772 763 760 764 762 760 757 756 764 766 766 760 739 743 755 765 767 776 775 766 787 790 780 776 775 783 788 828 815 688 694 693 699 703 710 709 714 716
764 768 775 775 774 767 771 768 760 760 753 752 755 754 753 758 762 754 736 737 747 746 755 763 774 782 767 783 786 783 776 770 772 780 771 787 674 689 694 696 701 703 705 709 710
756 759 767 763 751 748 758 756 754 748 746 747 747 749 752 746 737 733 739 738 744 741 742 737 756 751 733 728 749 769 762 758 749 739 727 707 693 645 682 678 669 682 697 697 701
741 733 737 743 741 745 747 738 733 743 741 741 742 735 737 742 734 734 729 741 747 743 744 744 737 735 720 710 746 740 726 737 747 717 718 675 690 642 671 667 658 665 675 689 694
720 728 730 722 726 731 731 721 723 731 741 740 730 732 731 730 723 720 727 731 728 758 753 753 731 731 728 712 737 737 696 715 717 693 705 686 669 627 655 655 653 654 660 675 681
712 707 707 708 715 719 712 710 708 721 718 716 719 724 721 712 715 709 718 721 719 726 750 759 749 763 720 724 745 742 682 687 681 668 682 688 631 633 647 646 641 646 660 662 667